SCOUT B DEB, 2498

Orbit data source: Space-Track

SCOUT B DEB, 2498 is space debris in LEO originally from a launch on Fri, 10 Jun 1966 UTC launched from the Wallops Island (WLPIS). Debris objects in space refer to the collection of defunct objects orbiting the Earth. Examples of debris include non-operational satellites, rocket bodies, and fragments generated from explosions, collisions, or faulty payload assembly.

Loading next visibility...
Identifier
2498, 1966-052C
Orbit
LEO
Country
Flag of USUS
Related business
Manufacturer
Unknown
Mission
Spacecraft
Bus & Motor
Unknown
Mass
Unknown
Launch date (UTC)
1966-06-10 (60 years ago)
Launch vehicle
Unknown
Launch site
Wallops Island (WLPIS)
Object type
Payload
Rocket body
Debris
Shape & HBR
Unknown shape, 0.1 m
Radar Cross Section
Small (<0.1 m²)

Expand to show TLE details & history
Last TLE update: 3 days ago

TLE from 3 days ago
0 SCOUT B DEB
1 02498U 66052C   26035.59683822  .00000266  00000-0  27560-3 0  9998
2 02498  40.6254 148.2030 2066999  10.5212 353.2640 10.56329119462840
Epoch: 2026-02-04T14:19Z
TLE epoch observation values (Epoch: 2026-02-04T14:19:26.822Z)
Latitude
0.00005°
Longitude
158.58016°
Altitude
601.917 km
Speed
8.295 km/s
True Right ascension
09h 52m 48s
True Declination
0° 00' 00"
Sunlit
Object was in full shadow at epoch
Visualization orbit readout
Latitude
Unknown
Longitude
Unknown
Altitude
Unknown
Speed
Unknown
Apparent Right ascension
Unknown
Apparent Declination
Unknown
Sunlit
N/A
Visualization observer readout
Local Sidereal Time
06:00:04
Azimuth
Unknown
Elevation
Unknown
Doppler factor
Unknown
Orbital elements
Apogee altitude
4,211.924 km
Perigee altitude
583.906 km
Semi-major axis
8,776.052 km
Eccentricity
0.2067
Inclination
40.6254°
RAAN
148.203°
Arg. of periapsis
10.5212°
True anomaly
349.5475°
Mean anomaly
353.264°
Eccentric anomaly
351.51695°
Mean motion
2.63994 °/min
Orbital period
136.37 mins
BSTAR
0.0002756
Loading maneuver chart data...
Computing Atmospheric mass density...
Loading historical data...
Loading historical data...
Loading historical data...
Loading historical data...
Loading historical data...
Loading historical data...
Loading historical data...
Other satellites on launch #52 in the year 1966 (1966-06-10 UTC)

Documentation

Showing up to 5 results
|